Baker, MT

9:37 PM MST on January 19, 2018 (GMT -0700)
Baker Municipal

Weather History for KBHK - October, 2011

Change the Weather History Date:

Tuesday, October 11, 2011

  Actual Average Record
Temperature  
Mean Temperature 54 °F -  
Max Temperature 69 °F 48 °F 78 °F (2000)
Min Temperature 41 °F 44 °F 19 °F (2006)
Degree Days  
Heating Degree Days 10    
Growing Degree Days 4 (Base 50)    
Moisture  
Dew Point 38 °F    
Average Humidity 58    
Maximum Humidity 82    
Minimum Humidity 32    
Precipitation  
Precipitation 0.00 in - - ()
Sea Level Pressure  
Sea Level Pressure 29.67 in    
Wind  
Wind Speed 7 mph (WSW)    
Max Wind Speed 17 mph    
Max Gust Speed 23 mph    
Visibility 10 miles    
Events Rain    
Averages and records for this station are not official NWS values.
T = Trace of Precipitation, MM = Missing Value Source: NWS Daily Summary

Daily Weather History Graph

Daily Weather History Graph

Search for Another Location

Airport or City:

Trip Planner

Search our weather history database for the weather conditions in past years. The results will help you decide how hot, cold, wet, or windy it might be!

Date:

Astronomy

Oct. 11, 2011 Rise Set
Actual Time 7:08 AM MDT 6:18 PM MDT
Civil Twilight 6:38 AM MDT 6:48 PM MDT
Nautical Twilight 6:03 AM MDT 7:23 PM MDT
Astronomical Twilight 5:28 AM MDT 7:58 PM MDT
Moon 5:47 PM MDT (10/11) 6:51 AM MDT (10/11)
Length of Visible Light 12h 09m
Length of Day
11h 09m
Full, 100% of the Moon is Illuminated
Oct 11
Full
Oct 11
Full
Oct 19
Last Quarter
Oct 26
New
Nov 2
First Quarter

Hourly Weather History & Observations

Time (MDT) Temp. Windchill Dew Point Humidity Pressure Visibility Wind Dir Wind Speed Gust Speed Precip Events Conditions
12:51 AM 46.0 °F 40.6 °F 35.1 °F 66% 29.66 in 10.0 mi South 11.5 mph - N/A   Clear
1:51 AM 43.0 °F 38.8 °F 35.1 °F 74% 29.66 in 10.0 mi ESE 6.9 mph - N/A   Clear
2:51 AM 45.0 °F 42.6 °F 34.0 °F 65% 29.65 in 10.0 mi South 4.6 mph - N/A   Clear
3:51 AM 45.0 °F 43.5 °F 33.1 °F 63% 29.65 in 10.0 mi SSE 3.5 mph - N/A   Clear
4:51 AM 46.9 °F - 33.1 °F 59% 29.65 in 10.0 mi South 11.5 mph - N/A   Clear
5:51 AM 46.0 °F 42.5 °F 34.0 °F 63% 29.67 in 10.0 mi SSW 6.9 mph - N/A   Clear
6:51 AM 42.1 °F 40.2 °F 36.0 °F 79% 29.68 in 10.0 mi NNE 3.5 mph - N/A   Clear
7:51 AM 41.0 °F - 36.0 °F 82% 29.69 in 10.0 mi Calm Calm - N/A   Overcast
8:51 AM 45.0 °F - 37.0 °F 74% 29.71 in 10.0 mi Calm Calm - N/A   Overcast
9:51 AM 53.1 °F - 37.9 °F 57% 29.69 in 10.0 mi WSW 5.8 mph - N/A   Overcast
10:51 AM 57.0 °F - 39.9 °F 53% 29.66 in 10.0 mi Calm Calm - N/A   Mostly Cloudy
11:51 AM 63.0 °F - 39.0 °F 41% 29.65 in 10.0 mi West 3.5 mph - N/A   Clear
12:51 PM 68.0 °F - 37.0 °F 32% 29.62 in 10.0 mi SW 5.8 mph - N/A   Clear
1:51 PM 68.0 °F - 37.9 °F 33% 29.62 in 10.0 mi West 15.0 mph - N/A   Clear
2:51 PM 66.9 °F - 37.9 °F 34% 29.62 in 10.0 mi WNW 9.2 mph - N/A   Clear
3:51 PM 66.9 °F - 37.0 °F 33% 29.62 in 10.0 mi NW 17.3 mph 23.0 mph N/A   Clear
4:51 PM 66.0 °F - 37.9 °F 36% 29.64 in 10.0 mi WNW 11.5 mph - N/A   Scattered Clouds
5:51 PM 60.1 °F - 39.0 °F 46% 29.67 in 10.0 mi West 6.9 mph - N/A   Clear
6:51 PM 57.9 °F - 41.0 °F 53% 29.70 in 10.0 mi West 8.1 mph - N/A   Scattered Clouds
7:51 PM 55.0 °F - 44.1 °F 67% 29.74 in 10.0 mi West 11.5 mph - 0.00 in Rain Light Rain
8:51 PM 55.0 °F - 44.1 °F 67% 29.73 in 10.0 mi West 6.9 mph - 0.00 in   Overcast
9:51 PM 51.1 °F - 43.0 °F 74% 29.73 in 10.0 mi WSW 5.8 mph - N/A   Scattered Clouds
10:51 PM 52.0 °F - 43.0 °F 71% 29.73 in 10.0 mi SW 11.5 mph - N/A   Partly Cloudy
11:51 PM 48.9 °F - 42.1 °F 77% 29.73 in 10.0 mi WSW 8.1 mph - N/A   Clear